sat.trackr.live / text

‹ back to catalog

VIASAT-1

NORAD 37843 · 2011-059A

PAYLOAD ACTIVE UNKNOWN

§ Identity

Operator
Country
US
Launch date
2011-10-19
Launch site
TYMSC
Launch vehicle
Mass (kg)
RCS (m²)
3.98

Purposes: comms

External: N2YO · Heavens-Above · Gunter

§ Orbital elements

Epoch: 2026-09-20T03:52:57.238176Z

Period
1,436.09 min
Inclination
0.0187°
Eccentricity
0.0002225
Mean motion
1.00272608 rev/d
Perigee alt
35,777.0 km
Apogee alt
35,795.7 km
Semi-major
42,164.5 km
B*
0.0000e+0
RAAN
200.0232°
Arg perigee
326.8740°
Mean anomaly
135.3133°
Rev number
4,827

§ Raw data

VIASAT-11 37843U 11059A   26263.16177359 -.00000028  00000+0  00000+0 0  99982 37843   0.0187 200.0232 0002225 326.8740 135.3133  1.00272608 48279

JSON: /api/v1/satellites/37843 · /tle

For live sub-satellite position, see the globe view (requires WebGL).

§ Visibility from observer

Set your observer location to see the next 7 days of passes ≥ 10°. The values pass through the URL so the page stays shareable.

No JS? Fill the form by hand. The geolocation button needs JavaScript.